DELTA 1 DEB, 12531

Orbit data source: Space-Track

DELTA 1 DEB, 12531 is space debris in SSO originally from a launch on Thu, 29 Jul 1976 UTC launched from the Air Force Western Test Range (AFWTR). Debris objects in space refer to the collection of defunct objects orbiting the Earth. Examples of debris include non-operational satellites, rocket bodies, and fragments generated from explosions, collisions, or faulty payload assembly.

Loading next visibility...
Identifier
12531, 1976-077DL
Orbit
SSO
Country
Flag of USUS
Related business
Manufacturer
Unknown
Mission
Spacecraft
Bus & Motor
Unknown
Mass
Unknown
Launch date (UTC)
1976-07-29 (49 years ago)
Launch vehicle
Unknown
Launch site
Air Force Western Test Range (AFWTR)
Object type
Payload
Rocket body
Debris
Shape & HBR
Unknown shape, 0.1 m
Radar Cross Section
Small (<0.1 m²)

Expand to show TLE details & history
Last TLE update: 18 hours ago

TLE from 18 hours ago
0 DELTA 1 DEB
1 12531U 76077DL  25302.94268618  .00000028  00000-0  65294-3 0  9994
2 12531 101.7604 101.3419 0135854 165.3525 347.1881 12.18492288 19192
Epoch: 2025-10-29T22:37Z
TLE epoch observation values (Epoch: 2025-10-29T22:37:28.085Z)
Latitude
27.21617°
Longitude
-90.41758°
Altitude
1,496.496 km
Speed
7.165 km/s
True Right ascension
19h 09m 49s
True Declination
27° 05' 23"
Sunlit
Object was in daylight at epoch
Visualization orbit readout
Latitude
Unknown
Longitude
Unknown
Altitude
Unknown
Speed
Unknown
Apparent Right ascension
Unknown
Apparent Declination
Unknown
Sunlit
N/A
Visualization observer readout
Local Sidereal Time
11:54:04
Azimuth
Unknown
Elevation
Unknown
Doppler factor
Unknown
Orbital elements
Apogee altitude
1,705.045 km
Perigee altitude
1,488.362 km
Semi-major axis
7,974.84 km
Eccentricity
0.01359
Inclination
101.7604°
RAAN
101.3419°
Arg. of periapsis
165.3525°
True anomaly
346.83708°
Mean anomaly
347.1881°
Eccentric anomaly
347.01318°
Mean motion
3.04762 °/min
Orbital period
118.13 mins
BSTAR
0.00065294
Loading maneuver chart data...
Computing Atmospheric mass density...
Loading historical data...
Loading historical data...
Loading historical data...
Loading historical data...
Loading historical data...
Loading historical data...
Loading historical data...

Documentation

Showing up to 5 results
|